Погода в Крушеваце

Сербия     43°35′08″N   21°19′42″E
темп.,
°C
ветер,
м/с
пор.,
м/с
влажн.,
%
обл.,
%
осадки,
мм/ч
давл.,
гПа
погр.,
м
26 сентября, вс
вс2623:00+16ююз22620 0.0 102212
02:00+14ю11670 0.0 102212
05:00+14ю11710 0.0 102113
08:00+17ююв11570 0.0 102292
11:00+25всв12390 0.0 1021639
14:00+29св22260 0.0 10191341
17:00+28св23295 0.0 1017130
20:00+20ююз22420 0.0 101814
27 сентября, пн
пн2723:00+18ю22480 0.0 101812
02:00+17ююв11500 0.0 101812
05:00+16ю11525 0.0 101714
08:00+19юв1147100 0.0 101768
11:00+26в232924 0.0 1016760
14:00+30всв32242 0.0 10141452
17:00+25с3647100 0.3 1014138
20:00+19ю3678100 1.2 101690
28 сентября, вт
вт2823:00+18юз117797 0.2 101611
02:00+18зсз1180100 0.2 101711
05:00+17сз1187100 0.1 101821
08:00+16ссв118911 0.4 101995
11:00+21ссв336466 0.1 1019959
14:00+19ссв337759 1.8 1019525
17:00+20ссв127473 1.1 1018353
20:00+16зсз1186100 1.4 101911
29 сентября, ср
ср2923:00+16ссз1189100 0.1 102023
02:00+15св119199 0.1 102041
05:00+14св228897 0.0 102086
08:00+14св2282100 0.0 1021195
11:00+17всв347042 0.0 1021672
14:00+21в445247 0.0 10201330
17:00+20всв4456100 0.0 1019666
20:00+15всв2373100 0.0 1021118
30 сентября, чт
чт3023:00+14в1278100 0.0 102274
02:00+13в1179100 0.0 102254
05:00+13св1276100 0.0 1022124
08:00+14св2270100 0.0 1023267
11:00+14св336391 0.0 1024529
14:00+16всв135499 0.0 1024738
17:00+18св354499 0.0 10231062
20:00+13с125756 0.0 102428